User: anonymous   Login
Location: Ar Ranvel
(48.3000°N, 4.8833°W)
Time: 18:19:39
(UTC+00:00)
Language:

deb Delta - Orbit

View from above orbital plane
View from above orbital plane
View from above satellite
View from above satellite

Ground track
Ground track

The orbit data is extracted from the following two-line orbital elements,

1 19311U 75004HP  24146.86043677  .00002681  00000-0  92668-3 0  9990
2 19311  97.6373 176.6931 0142376  27.5387 333.3250 14.30887809879821
Epoch (UTC): 25 May 2024 20:39:01
Eccentricity: 0.0142376
inclination: 97.6373°
perigee height: 687 km
apogee height: 891 km
right ascension of ascending node: 176.6931°
argument of perigee: 27.5387°
revolutions per day: 14.30887809
mean anomaly at epoch: 333.3250°
orbit number at epoch: 87982

The dashed part of the orbit path shows where the satellite is in the earth's shadow,  

DLR